[Iaude] MPEC V67: 2010 XF3 [a=0.95,e=0.11,i=6.0,H=24.50]
    mpec at marsden.cfa.harvard.edu 
    mpec at marsden.cfa.harvard.edu
       
    Mon Nov  6 09:19:24 EST 2023
    
    
  
M.P.E.C. 2023-V67                              Issued 2023 November 6, 14:18 UT
     The Minor Planet Electronic Circulars contain information on unusual
         minor planets, routine data on comets and natural satellites,
         and occasional editorial announcements.  They are published
    on behalf of Division F of the International Astronomical Union by the
          Minor Planet Center, Smithsonian Astrophysical Observatory,
                          Cambridge, MA 02138, U.S.A.
			  
             Prepared using the Tamkin Foundation Computer Network
                              MPC at CFA.HARVARD.EDU
            URL https://www.minorplanetcenter.net/    ISSN 1523-6714
                                    2010 XF3                                    
                           Revision to MPEC 2010-X43                            
Additional Observations:
     K10X03F KC2023 11 04.38283806 02 29.148-08 37 18.37         21.64GVEV067I52
     K10X03F KC2023 11 04.38748506 02 28.810-08 37 16.86         21.54GVEV067I52
     K10X03F KC2023 11 04.39878006 02 28.057-08 37 13.08         21.97GVEV067I52
     K10X03F KC2023 11 04.40342106 02 27.690-08 37 11.68         22.42GVEV067I52
     K10X03F KC2023 11 05.47638706 01 35.220-08 30 31.70         21.06GVEV067I52
     K10X03F KC2023 11 05.49832506 01 33.510-08 30 22.80         21.92GVEV067I52
     K10X03F KC2023 11 05.50218806 01 33.200-08 30 21.20         21.87GVEV067I52
     K10X03F KC2023 11 05.50604906 01 32.860-08 30 19.80               VEV067I52
Observer details:
I52 Steward Observatory, Mt. Lemmon Station.  Observers D. Rankin, R. A.
    Kowalski.  Measurers E. C. Beshore, D. Fay, J. B. Fazekas, D. C. Fuls, A.
    R. Gibbs, A. D. Grauer, H. Groeller, J. K. Hogan, R. A. Kowalski, S. M.
    Larson, G. J. Leonard, D. Rankin, R. L. Seaman, F. C. Shelly, K. W.
    Wierzchos.  1.0-m prime focus + CCD.
First and last observations above in comparison with prediction:
Residuals in seconds of arc (or two decimals in degrees), reference and Delta-T
231104 I52 1.05- 0.66-    231105 I52 1.10- 0.67-    E2023-P22   -0.18 days
Orbital elements:
2010 XF3                                                 Earth MOID = 0.0338 AU
Epoch 2023 Sept. 13.0 TT = JDT 2460200.5                Veres                   
M 133.25980              (2000.0)            P               Q                  
n   1.06138294     Peri.  140.72692     -0.78481955     +0.61119748             
a   0.9518196      Node    77.25220     -0.59175258     -0.68997947             
e   0.1119951      Incl.    6.02940     -0.18408465     -0.38777051             
P   0.93           H   24.50          G   0.15           U   0                  
Residuals in seconds of arc
101202 G96  0.1-  0.0     101203 300  1.5+  0.2+    101209 H20  1.0-  0.7+
101202 G96  0.1-  0.1-    101203 300  1.5+  0.7+    101209 H21  0.2+  0.3-
101202 G96  0.1-  0.0     101203 300  0.7+  0.3-    101209 H21  0.3+  0.1-
101202 G96  0.1+  0.0     101203 300  1.1+  0.2-    101209 H21  0.4+  0.1+
101202 H01  0.1+  0.1-    101204 204  0.0   0.1-    101209 H21  0.2+  0.1-
101202 H01  0.1-  0.1-    101204 204  0.2-  0.2-    101209 H21  0.3+  0.1-
101202 854  0.3-  0.6+    101204 204  0.4+  0.1-    101210 203  0.4+  0.2-
101202 H01  0.1+  0.1-    101204 G96  0.1+  0.1+    101210 203  0.2+  0.2-
101202 854  0.5+  0.0     101204 G96  0.2+  0.1+    101210 203  0.2+  0.0
101202 G96  0.0   0.0     101204 G96  0.5-  0.1+    101214 704  0.1-  0.1-
101202 G96  0.2-  0.0     101204 G96  0.5-  0.0     101214 704  0.2+  0.1-
101202 G96  0.4-  0.2-    101206 H20  0.0   0.0     101214 704  0.1-  0.4-
101202 854  0.0   0.1-    101206 H20  0.2-  0.6+    101214 704  0.3+  0.3-
101202 G96  0.0   0.2-    101206 H20  0.1+  0.2-    101214 H21  0.5+  0.1-
101202 H01  0.0   0.1-    101206 H20  0.4-  0.3+    101214 H21  0.2+  0.1-
101202 H10  0.5+  0.6-    101206 704  0.1+  0.4+    101214 H21  0.0   0.2-
101202 H10  0.2-  1.2-    101206 704  0.6-  0.5+    101214 703  0.9-  0.4+
101202 H10  0.6-  1.8-    101206 704  0.2+  0.4+    101214 703  1.0-  0.2+
101202 H10  0.0   2.2+    101206 H21  0.2+  0.0     101214 703  0.4+  0.8+
101202 H10  0.6-  2.1+    101206 704  0.2-  0.9+    101214 H21  0.1-  0.1+
101203 H01  0.0   0.1-    101206 H21  0.3+  0.0     101215 H21  0.3-  0.1-
101203 H01  0.1-  0.2-    101206 H21  0.1+  0.1+    101215 H21  0.1-  0.1+
101203 H01  0.1-  0.2-    101206 704  0.7-  0.1+    101215 H21  0.3-  0.1+
101203 H01  0.3+  0.1-    101208 703  0.1-  0.6-    110103 H21  0.3+  0.1+
101203 704  0.0   0.3+    101208 703  0.0   0.3+    110103 H21  0.0   0.0
101203 704  0.3+  0.1-    101208 703  0.4-  0.3-    110103 H21  0.2-  0.0
101203 704  0.0   0.1+    101208 H21  0.1+  0.0     231104 I52  0.2+  0.1+
101203 704  0.1+  0.2-    101208 448  0.1+  0.3+    231104 I52  0.1-  0.1+
101203 H36  0.4+  0.2-    101208 H21  0.4+  0.0     231104 I52  0.5+  0.2+
101203 H36  0.0   0.2-    101208 H21  0.2+  0.1-    231104 I52  0.0   0.1+
101203 H36  0.0   0.1-    101208 H21  0.0   0.0     231105 I52  0.0   0.0
101203 H36  0.0   0.3-    101208 448  0.0   0.1+    231105 I52  0.1+  0.3-
101203 704  0.0   0.2-    101208 448  0.1+  0.2+    231105 I52  0.0   0.3-
101203 300  1.1+  0.2+    101209 H20  0.7-  0.4+    231105 I52  0.6-  0.6-
101203 300  2.3+  0.5+    101209 H20  0.9-  0.2+
101203 300  1.4+  0.2+    101209 H20  0.9-  0.3+
Ephemeris:
2010 XF3                 a,e,i = 0.95, 0.11, 6                   q = 0.8452
Date    TT    R. A. (2000) Decl.     Delta      r    Elong.  Phase     V
2023 10 07    05 52 40.0 -08 27 49   0.1743  1.0525   102.9    67.8    23.2
...
2023 10 22    06 03 54.4 -09 02 15   0.1426  1.0580   112.4    60.4    22.6
...
2023 10 30    06 04 48.6 -08 57 35   0.1240  1.0583   118.6    55.5    22.1
...
2023 11 05    06 01 59.7 -08 32 45   0.1098  1.0572   124.1    51.0    21.7
2023 11 06    06 01 08.8 -08 26 02   0.1074  1.0569   125.1    50.1    21.6
2023 11 07    06 00 10.4 -08 18 25   0.1051  1.0566   126.2    49.2    21.6
...
2023 11 13    05 51 17.0 -07 08 43   0.09107 1.0541   133.1    43.3    21.1
...
2023 11 21    05 28 56.8 -03 58 49   0.07378 1.0492   144.8    32.8    20.3
...
2023 12 06    03 59 10.4 +10 37 29   0.05176 1.0352   163.5    15.7    19.0
A. U. Tomatic                (C) Copyright 2023 MPC           M.P.E.C. 2023-V67
    
    
More information about the Iaude
mailing list